Year,Month,Day,Hour,Minute,Value (Times are PST for temperature in C)
2011,02,22,08,15,0.80
2011,02,22,08,16,0.90
2011,02,22,08,17,1.00
2011,02,22,08,18,1.10
2011,02,22,08,19,1.10
2011,02,22,08,20,1.20
2011,02,22,08,21,1.20
2011,02,22,08,22,1.30
2011,02,22,08,23,1.40
2011,02,22,08,24,1.40
2011,02,22,08,25,1.50
2011,02,22,08,26,1.50
2011,02,22,08,27,1.50
2011,02,22,08,28,1.60
2011,02,22,08,29,1.60
2011,02,22,08,30,1.70
2011,02,22,08,31,1.70
2011,02,22,08,32,1.80
2011,02,22,08,33,1.80
2011,02,22,08,34,1.80
2011,02,22,08,35,1.80
2011,02,22,08,36,1.90
2011,02,22,08,37,1.90
2011,02,22,08,38,2.00
2011,02,22,08,39,2.10
2011,02,22,08,40,2.10
2011,02,22,08,41,2.20
2011,02,22,08,42,2.20
2011,02,22,08,43,2.20
2011,02,22,08,44,2.30
2011,02,22,08,45,2.40
2011,02,22,08,46,2.50
2011,02,22,08,47,2.50
2011,02,22,08,48,2.50
2011,02,22,08,49,2.50
2011,02,22,08,50,2.50
2011,02,22,08,51,2.60
2011,02,22,08,52,2.60
2011,02,22,08,53,2.60
2011,02,22,08,54,2.60
2011,02,22,08,55,2.60
2011,02,22,08,56,2.70
2011,02,22,08,57,2.70
2011,02,22,08,58,2.70
2011,02,22,08,59,2.70
2011,02,22,09,00,2.70
2011,02,22,09,01,2.70
2011,02,22,09,02,2.70
2011,02,22,09,03,2.70
2011,02,22,09,04,2.70
2011,02,22,09,05,2.70
2011,02,22,09,06,2.70
2011,02,22,09,07,2.70
2011,02,22,09,08,2.70
2011,02,22,09,09,2.70
2011,02,22,09,10,2.70
2011,02,22,09,11,2.70
2011,02,22,09,12,2.70
2011,02,22,09,13,2.70
2011,02,22,09,14,2.70
2011,02,22,09,15,2.70
2011,02,22,09,16,2.70
2011,02,22,09,17,2.70
2011,02,22,09,18,2.70
2011,02,22,09,19,2.70
2011,02,22,09,20,2.80
2011,02,22,09,21,2.80
2011,02,22,09,22,2.80
2011,02,22,09,23,2.80
2011,02,22,09,24,2.80
2011,02,22,09,25,2.90
2011,02,22,09,26,2.90
2011,02,22,09,27,2.90
2011,02,22,09,28,2.90
2011,02,22,09,29,3.10
2011,02,22,09,30,3.10
2011,02,22,09,31,3.20
2011,02,22,09,32,3.30
2011,02,22,09,33,3.40
2011,02,22,09,34,3.50
2011,02,22,09,35,3.60
2011,02,22,09,36,3.70
2011,02,22,09,37,3.80
2011,02,22,09,38,3.90
2011,02,22,09,39,4.00
2011,02,22,09,40,4.10
2011,02,22,09,41,4.20
2011,02,22,09,42,4.20
2011,02,22,09,43,4.20
2011,02,22,09,44,4.30
2011,02,22,09,45,4.30
2011,02,22,09,46,4.40
2011,02,22,09,47,4.50
2011,02,22,09,48,4.50
2011,02,22,09,49,4.60
2011,02,22,09,50,4.60
2011,02,22,09,51,4.60
2011,02,22,09,52,4.60
2011,02,22,09,53,4.50
2011,02,22,09,54,4.50
2011,02,22,09,55,4.50
2011,02,22,09,56,4.40
2011,02,22,09,57,4.40
2011,02,22,09,58,4.40
2011,02,22,09,59,4.40
2011,02,22,10,00,4.30
2011,02,22,10,01,4.30
2011,02,22,10,02,4.30
2011,02,22,10,03,4.40
2011,02,22,10,04,4.40
2011,02,22,10,05,4.40
2011,02,22,10,06,4.40
2011,02,22,10,07,4.50
2011,02,22,10,08,4.70
2011,02,22,10,09,4.80
2011,02,22,10,10,4.90
2011,02,22,10,11,5.00
2011,02,22,10,12,5.10
2011,02,22,10,13,5.10
2011,02,22,10,14,5.10
2011,02,22,10,15,5.10
2011,02,22,10,16,5.10
2011,02,22,10,17,5.20
2011,02,22,10,18,5.20
2011,02,22,10,19,5.10
2011,02,22,10,20,5.10
2011,02,22,10,21,5.00
2011,02,22,10,22,4.90
2011,02,22,10,23,4.90
2011,02,22,10,24,4.80
2011,02,22,10,25,4.80
2011,02,22,10,26,4.70
2011,02,22,10,27,4.70
2011,02,22,10,28,4.70
2011,02,22,10,29,4.70
2011,02,22,10,30,4.70
2011,02,22,10,31,4.70
2011,02,22,10,32,4.60
2011,02,22,10,33,4.60
2011,02,22,10,34,4.60
2011,02,22,10,35,4.60
2011,02,22,10,36,4.60
2011,02,22,10,37,4.60
2011,02,22,10,38,4.60
2011,02,22,10,39,4.60
2011,02,22,10,40,4.60
2011,02,22,10,41,4.60
2011,02,22,10,42,4.60
2011,02,22,10,43,4.60
2011,02,22,10,44,4.60
2011,02,22,10,45,4.60
2011,02,22,10,46,4.70
2011,02,22,10,47,4.70
2011,02,22,10,48,4.80
2011,02,22,10,49,4.90
2011,02,22,10,50,5.00
2011,02,22,10,51,5.10
2011,02,22,10,52,5.30
2011,02,22,10,53,5.30
2011,02,22,10,54,5.50
2011,02,22,10,55,5.60
2011,02,22,10,56,5.60
2011,02,22,10,57,5.60
2011,02,22,10,58,5.60
2011,02,22,10,59,5.60
2011,02,22,11,00,5.60
2011,02,22,11,01,5.60
2011,02,22,11,02,5.50
2011,02,22,11,03,5.50
2011,02,22,11,04,5.50
2011,02,22,11,05,5.50
2011,02,22,11,06,5.40
2011,02,22,11,07,5.50
2011,02,22,11,08,5.50
2011,02,22,11,09,5.50
2011,02,22,11,10,5.60
2011,02,22,11,11,5.60
2011,02,22,11,12,5.50
2011,02,22,11,13,5.50
2011,02,22,11,14,5.40
2011,02,22,11,15,5.40
2011,02,22,11,16,5.50
2011,02,22,11,17,5.50
2011,02,22,11,18,5.50
2011,02,22,11,19,5.50
2011,02,22,11,20,5.50
2011,02,22,11,21,5.50
2011,02,22,11,22,5.40
2011,02,22,11,23,5.40
2011,02,22,11,24,5.40
2011,02,22,11,25,5.40
2011,02,22,11,26,5.40
2011,02,22,11,27,5.30
2011,02,22,11,28,5.30
2011,02,22,11,29,5.30
2011,02,22,11,30,5.30
2011,02,22,11,31,5.20
2011,02,22,11,32,5.10
2011,02,22,11,33,5.10
2011,02,22,11,34,5.10
2011,02,22,11,35,5.10
2011,02,22,11,36,5.10
2011,02,22,11,37,5.00
2011,02,22,11,38,4.90
2011,02,22,11,39,4.90
2011,02,22,11,40,4.90
2011,02,22,11,41,4.90
2011,02,22,11,42,4.90
2011,02,22,11,43,4.90
2011,02,22,11,44,4.80
2011,02,22,11,45,4.80
2011,02,22,11,46,4.80
2011,02,22,11,47,4.80
2011,02,22,11,48,4.80
2011,02,22,11,49,4.80
2011,02,22,11,50,4.80
2011,02,22,11,51,4.80
2011,02,22,11,52,4.80
2011,02,22,11,53,4.70
2011,02,22,11,54,4.70
2011,02,22,11,55,4.70
2011,02,22,11,56,4.60
2011,02,22,11,57,4.60
2011,02,22,11,58,4.60
2011,02,22,11,59,4.60
2011,02,22,12,00,4.60
2011,02,22,12,01,4.60
2011,02,22,12,02,4.60
2011,02,22,12,03,4.60
2011,02,22,12,04,4.50
2011,02,22,12,05,4.50
2011,02,22,12,06,4.50
2011,02,22,12,07,4.50
2011,02,22,12,08,4.50
2011,02,22,12,09,4.60
2011,02,22,12,10,4.60
2011,02,22,12,11,4.60
2011,02,22,12,12,4.60
2011,02,22,12,13,4.60
2011,02,22,12,14,4.50
2011,02,22,12,15,4.50
2011,02,22,12,16,4.40
2011,02,22,12,17,4.40
2011,02,22,12,18,4.40
2011,02,22,12,19,4.30
2011,02,22,12,20,4.30
2011,02,22,12,21,4.40
2011,02,22,12,22,4.40
2011,02,22,12,23,4.50
2011,02,22,12,24,4.50
2011,02,22,12,25,4.40
2011,02,22,12,26,4.40
2011,02,22,12,27,4.50
2011,02,22,12,28,4.50
2011,02,22,12,29,4.60
2011,02,22,12,30,4.50
2011,02,22,12,31,4.50
2011,02,22,12,32,4.50
2011,02,22,12,33,4.50
2011,02,22,12,34,4.50
2011,02,22,12,35,4.50
2011,02,22,12,36,4.50
2011,02,22,12,37,4.50
2011,02,22,12,38,4.50
2011,02,22,12,39,4.50
2011,02,22,12,40,4.50
2011,02,22,12,41,4.40
2011,02,22,12,42,4.50
2011,02,22,12,43,4.50
2011,02,22,12,44,4.50
2011,02,22,12,45,4.50
2011,02,22,12,46,4.50
2011,02,22,12,47,4.50
2011,02,22,12,48,4.50
2011,02,22,12,49,4.50
2011,02,22,12,50,4.50
2011,02,22,12,51,4.60
2011,02,22,12,52,4.60
2011,02,22,12,53,4.60
2011,02,22,12,54,4.60
2011,02,22,12,55,4.60
2011,02,22,12,56,4.50
2011,02,22,12,57,4.50
2011,02,22,12,58,4.50
2011,02,22,12,59,4.60
2011,02,22,13,00,4.60
2011,02,22,13,01,4.60
2011,02,22,13,02,4.60
2011,02,22,13,03,4.60
2011,02,22,13,04,4.60
2011,02,22,13,05,4.50
2011,02,22,13,06,4.40
2011,02,22,13,07,4.20
2011,02,22,13,08,4.20
2011,02,22,13,09,4.10
2011,02,22,13,10,4.10
2011,02,22,13,11,4.10
2011,02,22,13,12,4.00
2011,02,22,13,13,4.00
2011,02,22,13,14,4.00
2011,02,22,13,15,3.90
2011,02,22,13,16,3.80
2011,02,22,13,17,3.80
2011,02,22,13,18,3.80
2011,02,22,13,19,3.80
2011,02,22,13,20,3.80
2011,02,22,13,21,3.80
2011,02,22,13,22,3.80
2011,02,22,13,23,3.80
2011,02,22,13,24,3.80
2011,02,22,13,25,3.80
2011,02,22,13,26,3.80
2011,02,22,13,27,3.80
2011,02,22,13,28,3.80
2011,02,22,13,29,3.80
2011,02,22,13,30,3.80
2011,02,22,13,31,3.80
2011,02,22,13,32,3.80
2011,02,22,13,33,3.80
2011,02,22,13,34,3.80
2011,02,22,13,35,3.80
2011,02,22,13,36,3.80
2011,02,22,13,37,3.80
2011,02,22,13,38,3.80
2011,02,22,13,39,3.80
2011,02,22,13,40,3.80
2011,02,22,13,41,3.80
2011,02,22,13,42,3.80
2011,02,22,13,43,3.80
2011,02,22,13,44,3.80
2011,02,22,13,45,3.90
2011,02,22,13,46,3.90
2011,02,22,13,47,3.90
2011,02,22,13,48,3.90
2011,02,22,13,49,3.80
2011,02,22,13,50,3.80
2011,02,22,13,51,3.90
2011,02,22,13,52,4.00
2011,02,22,13,53,4.00
2011,02,22,13,54,4.00
2011,02,22,13,55,4.00
2011,02,22,13,56,4.00
2011,02,22,13,57,4.10
2011,02,22,13,58,4.20
2011,02,22,13,59,4.20
2011,02,22,14,00,4.20
2011,02,22,14,01,4.20
2011,02,22,14,02,4.30
2011,02,22,14,03,4.30
2011,02,22,14,04,4.30
2011,02,22,14,05,4.30
2011,02,22,14,06,4.40
2011,02,22,14,07,4.50
2011,02,22,14,08,4.50
2011,02,22,14,09,4.50
2011,02,22,14,10,4.50
2011,02,22,14,11,4.50
2011,02,22,14,12,4.50
2011,02,22,14,13,4.50
2011,02,22,14,14,4.40
2011,02,22,14,15,4.30
2011,02,22,14,16,4.20
2011,02,22,14,17,4.10
2011,02,22,14,18,4.00
2011,02,22,14,19,4.00
2011,02,22,14,20,4.00
2011,02,22,14,21,3.90
2011,02,22,14,22,3.80
2011,02,22,14,23,3.80
2011,02,22,14,24,3.80
2011,02,22,14,25,3.80
2011,02,22,14,26,3.80
2011,02,22,14,27,3.90
2011,02,22,14,28,3.90
2011,02,22,14,29,4.00
2011,02,22,14,30,4.00
2011,02,22,14,31,4.00
2011,02,22,14,32,4.00
2011,02,22,14,33,4.00
2011,02,22,14,34,4.00
2011,02,22,14,35,4.00
2011,02,22,14,36,4.00
2011,02,22,14,37,4.00
2011,02,22,14,38,4.00
2011,02,22,14,39,4.00
2011,02,22,14,40,4.00
2011,02,22,14,41,4.00
2011,02,22,14,42,4.00
2011,02,22,14,43,4.00
2011,02,22,14,44,4.00
2011,02,22,14,45,4.00
2011,02,22,14,46,4.00
2011,02,22,14,47,4.00
2011,02,22,14,48,4.00
2011,02,22,14,49,4.00
2011,02,22,14,50,4.00
2011,02,22,15,07,2.90
2011,02,22,15,08,2.90
2011,02,22,15,09,2.90
2011,02,22,15,10,2.90
2011,02,22,15,11,2.90
2011,02,22,15,12,2.80
2011,02,22,15,13,2.80
2011,02,22,15,14,2.80
2011,02,22,15,15,2.70
2011,02,22,15,16,2.70
2011,02,22,15,17,2.70
2011,02,22,15,18,2.70
2011,02,22,15,19,2.70
2011,02,22,15,20,2.70
2011,02,22,15,21,2.70
2011,02,22,15,22,2.70
2011,02,22,15,23,2.70
2011,02,22,15,24,2.70
2011,02,22,15,25,2.70
2011,02,22,15,26,2.70
2011,02,22,15,27,2.70
2011,02,22,15,28,2.80
2011,02,22,15,29,2.80
2011,02,22,15,30,2.80
2011,02,22,15,31,2.80
2011,02,22,15,32,2.80
2011,02,22,15,33,2.80
2011,02,22,15,34,2.90
2011,02,22,15,35,2.90
2011,02,22,15,36,2.90
2011,02,22,15,37,3.00
2011,02,22,15,38,3.10
2011,02,22,15,39,3.10
2011,02,22,15,40,3.10
2011,02,22,15,41,3.20
2011,02,22,15,42,3.20
2011,02,22,15,43,3.30
2011,02,22,15,44,3.30
2011,02,22,15,45,3.30
2011,02,22,15,46,3.40
2011,02,22,15,47,3.40
2011,02,22,15,48,3.50
2011,02,22,15,49,3.60
2011,02,22,15,50,3.60
2011,02,22,15,51,3.70
2011,02,22,15,52,3.70
2011,02,22,15,53,3.70
2011,02,22,15,54,3.70
2011,02,22,15,55,3.70
2011,02,22,15,56,3.80
2011,02,22,15,57,3.80
2011,02,22,15,58,3.80
2011,02,22,15,59,3.80
2011,02,22,16,00,3.80
2011,02,22,16,01,3.80
2011,02,22,16,02,3.80
2011,02,22,16,03,3.80
2011,02,22,16,04,3.70
2011,02,22,16,05,3.70
2011,02,22,16,06,3.60
2011,02,22,16,07,3.50
2011,02,22,16,08,3.30
2011,02,22,16,09,3.20
2011,02,22,16,10,3.10
2011,02,22,16,11,3.10
2011,02,22,16,12,3.00
2011,02,22,16,13,2.90
2011,02,22,16,14,2.90
2011,02,22,16,15,2.90
2011,02,22,16,16,2.90
2011,02,22,16,17,2.80
2011,02,22,16,18,2.70
2011,02,22,16,19,2.70
2011,02,22,16,20,2.70
2011,02,22,16,21,2.70
2011,02,22,16,22,2.70
2011,02,22,16,23,2.70
2011,02,22,16,24,2.70
2011,02,22,16,25,2.70
2011,02,22,16,26,2.60
2011,02,22,16,27,2.70
2011,02,22,16,28,2.70
2011,02,22,16,29,2.70
2011,02,22,16,30,2.70
2011,02,22,16,31,2.70
2011,02,22,16,32,2.70
2011,02,22,16,33,2.70
2011,02,22,16,34,2.70
2011,02,22,16,35,2.70
2011,02,22,16,36,2.60
2011,02,22,16,37,2.60
2011,02,22,16,38,2.60
2011,02,22,16,39,2.60
2011,02,22,16,40,2.70
2011,02,22,16,41,2.70
2011,02,22,16,42,2.70
2011,02,22,16,43,2.70
2011,02,22,16,44,2.70
2011,02,22,16,45,2.70
2011,02,22,16,46,2.70
2011,02,22,16,47,2.70
2011,02,22,16,48,2.70
2011,02,22,16,49,2.70
2011,02,22,16,50,2.70
2011,02,22,16,51,2.70
2011,02,22,16,52,2.70
2011,02,22,16,53,2.80
2011,02,22,16,54,2.80
2011,02,22,16,55,2.80
2011,02,22,16,56,2.80
2011,02,22,16,57,2.80
2011,02,22,16,58,2.80
2011,02,22,16,59,2.90
2011,02,22,17,00,2.90
2011,02,22,17,01,2.90
2011,02,22,17,02,2.90
2011,02,22,17,03,2.90
2011,02,22,17,04,2.90
2011,02,22,17,05,2.90
2011,02,22,17,06,2.90
2011,02,22,17,07,2.90
2011,02,22,17,08,2.90
2011,02,22,17,09,2.90
2011,02,22,17,10,2.90
2011,02,22,17,11,2.90
2011,02,22,17,12,2.90
2011,02,22,17,13,2.90
2011,02,22,17,14,2.90
2011,02,22,17,15,2.90
2011,02,22,17,16,2.90
2011,02,22,17,17,2.90
2011,02,22,17,18,3.00
2011,02,22,17,19,3.10
2011,02,22,17,20,3.10
2011,02,22,17,21,3.10
2011,02,22,17,22,3.20
2011,02,22,17,23,3.20
2011,02,22,17,24,3.30
2011,02,22,17,25,3.30
2011,02,22,17,26,3.30
2011,02,22,17,27,3.30
2011,02,22,17,28,3.30
2011,02,22,17,29,3.30
2011,02,22,17,30,3.30
2011,02,22,17,31,3.30
2011,02,22,17,32,3.30
2011,02,22,17,33,3.30
2011,02,22,17,34,3.30
